| time (UTC) | temp F | wind direction | speed knots | gust knots | rain 1hr in | rain 24hr in | rain mn in | humidity % | barometer mb |
| 20260503183005 | 61 | 360 | 0.0 | 13.9 | 0.00 | 0.00 | 0.00 | 39 | 1010.0 |
| 20260503181506 | 61 | 360 | 0.0 | 13.9 | 0.00 | 0.00 | 0.00 | 39 | 1010.0 |
| 20260503180019 | 61 | 0 | 4.3 | 13.9 | 0.00 | 0.00 | 0.00 | 39 | 1009.7 |
| 20260503180005 | 57 | 360 | 0.0 | 11.3 | 0.00 | 0.00 | 0.00 | 45 | 1011.0 |
| 20260503174505 | 57 | 360 | 0.0 | 11.3 | 0.00 | 0.00 | 0.00 | 45 | 1011.0 |
| 20260503173005 | 57 | 360 | 0.0 | 11.3 | 0.00 | 0.00 | 0.00 | 45 | 1011.0 |
| 20260503171506 | 57 | 360 | 0.0 | 11.3 | 0.00 | 0.00 | 0.00 | 45 | 1011.0 |
| 20260503081505 | 36 | 0.0 | 0.0 | 0.00 | 0.00 | 0.00 | 65 | 1013.8 | |
| 20260503071506 | 36 | 0.0 | 0.9 | 0.00 | 0.00 | 0.00 | 65 | 1014.0 | |
| 20260503054505 | 36 | 0.0 | 0.0 | 0.00 | 0.00 | 0.00 | 68 | 1014.8 | |
| 20260503053005 | 36 | 0.0 | 0.0 | 0.00 | 0.00 | 0.00 | 68 | 1014.8 | |
| 20260503051505 | 36 | 0.0 | 0.0 | 0.00 | 0.00 | 0.00 | 68 | 1014.8 | |
| 20260503050019 | 37 | 0.0 | 0.0 | 0.00 | 0.00 | 0.00 | 68 | 1013.9 | |
| 20260503050006 | 38 | 0.0 | 0.0 | 0.00 | 0.00 | 0.00 | 67 | 1015.0 | |
| 20260503044506 | 38 | 0.0 | 0.0 | 0.00 | 0.00 | 0.00 | 67 | 1015.0 | |
| 20260503043005 | 38 | 0.0 | 0.0 | 0.00 | 0.00 | 0.00 | 67 | 1015.0 | |
| 20260503041505 | 38 | 0.0 | 0.0 | 0.00 | 0.00 | 0.00 | 67 | 1015.0 | |
| 20260503040019 | 38 | 0.0 | 0.0 | 0.00 | 0.00 | 0.00 | 67 | 1014.1 | |
| 20260503040005 | 39 | 0.0 | 0.0 | 0.00 | 0.00 | 0.00 | 66 | 1015.2 | |
| 20260503034505 | 39 | 0.0 | 0.0 | 0.00 | 0.00 | 0.00 | 66 | 1015.2 | |
| 20260503033005 | 39 | 0.0 | 0.0 | 0.00 | 0.00 | 0.00 | 66 | 1015.2 | |
| 20260503031505 | 39 | 0.0 | 0.0 | 0.00 | 0.00 | 0.00 | 66 | 1015.2 | |
| 20260503030020 | 39 | 0.0 | 0.0 | 0.00 | 0.00 | 0.00 | 66 | 1014.3 | |
| 20260503030005 | 42 | 0.0 | 0.0 | 0.00 | 0.00 | 0.00 | 62 | 1015.2 | |
| 20260503024506 | 42 | 0.0 | 0.0 | 0.00 | 0.00 | 0.00 | 62 | 1015.2 | |
| 20260503023006 | 42 | 0.0 | 0.0 | 0.00 | 0.00 | 0.00 | 62 | 1015.2 | |
| 20260503021505 | 42 | 0.0 | 0.0 | 0.00 | 0.00 | 0.00 | 62 | 1015.2 | |
| 20260503020020 | 42 | 0.0 | 0.0 | 0.00 | 0.00 | 0.00 | 62 | 1014.4 | |
| 20260503020005 | 46 | 0.0 | 3.5 | 0.00 | 0.00 | 0.00 | 52 | 1014.9 | |
| 20260503014505 | 46 | 0.0 | 3.5 | 0.00 | 0.00 | 0.00 | 52 | 1014.9 | |
| 20260503013005 | 46 | 0.0 | 3.5 | 0.00 | 0.00 | 0.00 | 52 | 1014.9 | |
| 20260503011506 | 46 | 0.0 | 3.5 | 0.00 | 0.00 | 0.00 | 52 | 1014.9 | |
| 20260503010020 | 46 | 0.0 | 3.5 | 0.00 | 0.00 | 0.00 | 52 | 1014.0 | |
| 20260503010005 | 47 | 360 | 0.0 | 3.5 | 0.00 | 0.00 | 0.00 | 48 | 1014.7 |
| 20260503004505 | 47 | 360 | 0.0 | 3.5 | 0.00 | 0.00 | 0.00 | 48 | 1014.7 |
| 20260503003005 | 47 | 360 | 0.0 | 3.5 | 0.00 | 0.00 | 0.00 | 48 | 1014.7 |
| 20260503001506 | 47 | 360 | 0.0 | 3.5 | 0.00 | 0.00 | 0.00 | 48 | 1014.7 |
| 20260503000020 | 47 | 0 | 0.9 | 3.5 | 0.00 | 0.00 | 0.00 | 48 | 1013.8 |
| 20260503000006 | 48 | 360 | 0.0 | 3.5 | 0.00 | 0.00 | 0.00 | 47 | 1015.0 |
| 20260502234505 | 48 | 360 | 0.0 | 3.5 | 0.00 | 0.00 | 0.00 | 47 | 1015.0 |
| 20260502233005 | 48 | 360 | 0.0 | 3.5 | 0.00 | 0.00 | 0.00 | 47 | 1015.0 |
| 20260502231505 | 48 | 360 | 0.0 | 3.5 | 0.00 | 0.00 | 0.00 | 47 | 1015.0 |
| 20260502230019 | 48 | 0 | 0.9 | 3.5 | 0.00 | 0.00 | 0.00 | 47 | 1014.0 |
| 20260502230005 | 47 | 360 | 0.0 | 7.0 | 0.00 | 0.00 | 0.00 | 46 | 1015.1 |
| 20260502224505 | 47 | 360 | 0.0 | 7.0 | 0.00 | 0.00 | 0.00 | 46 | 1015.1 |
| 20260502223005 | 47 | 360 | 0.0 | 7.0 | 0.00 | 0.00 | 0.00 | 46 | 1015.1 |
| 20260502221505 | 47 | 360 | 0.0 | 7.0 | 0.00 | 0.00 | 0.00 | 46 | 1015.1 |
| 20260502220019 | 47 | 0 | 0.9 | 7.0 | 0.00 | 0.00 | 0.00 | 46 | 1014.2 |
| 20260502220006 | 47 | 360 | 0.0 | 7.0 | 0.00 | 0.00 | 0.00 | 45 | 1015.3 |
| 20260502214506 | 47 | 360 | 0.0 | 7.0 | 0.00 | 0.00 | 0.00 | 45 | 1015.3 |
| 20260502213005 | 47 | 360 | 0.0 | 7.0 | 0.00 | 0.00 | 0.00 | 45 | 1015.3 |
| 20260502211505 | 47 | 360 | 0.0 | 7.0 | 0.00 | 0.00 | 0.00 | 45 | 1015.3 |
| 20260502210019 | 47 | 0 | 1.7 | 7.0 | 0.00 | 0.00 | 0.00 | 45 | 1014.5 |
| 20260502210005 | 46 | 360 | 0.0 | 10.4 | 0.00 | 0.00 | 0.00 | 46 | 1015.8 |
| 20260502204505 | 46 | 360 | 0.0 | 10.4 | 0.00 | 0.00 | 0.00 | 46 | 1015.8 |
| 20260502203005 | 46 | 360 | 0.0 | 10.4 | 0.00 | 0.00 | 0.00 | 46 | 1015.8 |
| 20260502201505 | 46 | 360 | 0.0 | 10.4 | 0.00 | 0.00 | 0.00 | 46 | 1015.8 |
| 20260502200019 | 46 | 0 | 2.6 | 10.4 | 0.00 | 0.00 | 0.00 | 46 | 1015.1 |
| 20260502200005 | 46 | 360 | 0.0 | 7.0 | 0.00 | 0.00 | 0.00 | 44 | 1016.3 |
| 20260502194505 | 46 | 360 | 0.0 | 7.0 | 0.00 | 0.00 | 0.00 | 44 | 1016.3 |
| 20260502193006 | 46 | 360 | 0.0 | 7.0 | 0.00 | 0.00 | 0.00 | 44 | 1016.3 |
| 20260502191506 | 46 | 360 | 0.0 | 7.0 | 0.00 | 0.00 | 0.00 | 44 | 1016.3 |
| 20260502190019 | 46 | 0 | 1.7 | 7.0 | 0.00 | 0.00 | 0.00 | 44 | 1015.6 |
| 20260502190005 | 45 | 360 | 0.0 | 7.0 | 0.00 | 0.00 | 0.00 | 46 | 1016.6 |
| 20260502184505 | 45 | 360 | 0.0 | 7.0 | 0.00 | 0.00 | 0.00 | 46 | 1016.6 |